Regional Weather Roundup
Issued by NWS

Home | Current Version | Previous Version | Graphics & Text | Print | Product List | Glossary On
Versions: 1 2 3 4 5 6 7 8 9 10 11 12 13 14 15 16 17 18 19 20 21 22 23 24 25 26 27 28 29 30 31 32 33 34 35 36 37 38 39 40 41 42 43 44 45 46 47 48 49 50
000
ASUS45 KBOU 191210
RWRCO

WEATHER ROUNDUP FOR COLORADO
NATIONAL WEATHER SERVICE DENVER/BOULDER CO
500 AM MST SUN NOV 19 2017

NOTE: "FAIR" INDICATES FEW OR NO CLOUDS BELOW 12000 FEET WITH NO
SIGNIFICANT WEATHER AND/OR OBSTRUCTIONS TO VISIBILITY.

COZ001>005-013-030-031-191300-
...NORTHWEST COLORADO...

CITY           SKY/WX    TMP DP  RH WIND       PRES   REMARKS
CRAIG          FAIR       9   4  80 SW5       30.33F WCI   1
HAYDEN         FAIR      14   8  77 SE15      30.34F WCI  -1
MEEKER         FAIR      11   7  84 MISG      30.33F
RABBIT EARS PA FAIR      16   9  73 SW9       30.28S WCI   4
STEAMBOAT SPGS FAIR      10   7  89 CALM      30.33F
WALDEN         FAIR       9   1  72 SE10      30.29S WCI  -6
$$

COZ006>008-011-191300-
...WEST CENTRAL VALLEYS...

CITY           SKY/WX    TMP DP  RH WIND       PRES   REMARKS
GRAND JUNCTION FAIR      15  13  91 E3        30.37S
MONTROSE       FAIR      18  14  84 SE8       30.39F WCI   8
EAGLE          FAIR      12   9  87 E6        30.42S WCI   3
RIFLE          FAIR      16  12  84 CALM      30.39F
DELTA          FAIR      20  14  78 CALM      30.39S
NUCLA          FAIR      18  10  73 SE6       30.40S WCI   9
$$

COZ017>023-064>068-191300-
...SOUTHWEST COLORADO...

CITY           SKY/WX    TMP DP  RH WIND       PRES   REMARKS
DURANGO        FAIR      14  10  84 NE5       30.32F WCI   6
CORTEZ         FAIR      11   7  84 E7        30.34F WCI   0
PAGOSA SPRINGS FAIR      19  13  77 CALM      30.33S
TELLURIDE      FAIR      22   5  47 SE7       30.35S WCI  13
WOLF CREEK PAS FAIR      23 -13  20 SW8       30.41S WCI  14
$$

COZ009-010-012-014-032>034-037-058>063-191300-
...CENTRAL COLORADO...

CITY           SKY/WX    TMP DP  RH WIND       PRES   REMARKS
ASPEN          FAIR      12   6  77 S6        30.32F WCI   3
BUENA VISTA    FAIR      17   9  72 CALM      30.31F
COPPER MTN     FAIR      23  -6  28 MISG      30.31S
BERTHOUD PASS  FAIR      14   3  62 NW38G47   30.23R WCI  -9
COTTONWOOD PAS FAIR      32   1  27 NW6       30.29S WCI  26
GUNNISON       FAIR       6   2  83 E5        30.43S WCI  -3
KREMMLING      FAIR      14   9  79 CALM      30.38S
LEADVILLE      FAIR      16   1  51 NE6       30.29S WCI   7
MONARCH PASS   FAIR      18  -9  29 W26       30.43R WCI  -1
SALIDA         FAIR      24  10  54 N9        30.39R WCI  14
SUNLIGHT       FAIR      19   0  42 SW12      30.36S WCI   7
WILKERSON PASS FAIR      23  -8  25 W8        30.33S WCI  14
$$

COZ069>075-191300-
...SAN LUIS VALLEY/SANGRE DE CRISTO MOUNTAINS...

CITY           SKY/WX    TMP DP  RH WIND       PRES   REMARKS
ALAMOSA        FAIR       9   5  84 CALM      30.35S
DEL NORTE      FAIR      19   4  52 W14       30.34F WCI   6
LA VETA PASS   FAIR      21   5  49 SW30        N/A  WCI   3
SAGUACHE       FAIR      14   3  62 NW13      30.35S WCI   0
$$

COZ035-036-038>040-191300-
...NORTHERN COLORADO FRONT RANGE...

CITY           SKY/WX    TMP DP  RH WIND       PRES   REMARKS
DENVER INTL AP FAIR      28  13  53 S7        30.16S WCI  21
DMNS CITY PARK   N/A     30  15  53 E6        30.17S WCI  24
AURORA         PTCLDY    32  12  43 S8        30.16F WCI  25
FRONT RANGE AP FAIR      27  19  71 SE6       30.16F WCI  21
ERIE MUNI ARPT FAIR      19  16  87 SW5       30.22F WCI  12
BOULDER MUN AP FAIR      27  19  74 CALM      30.16R
CENTENNIAL     FAIR      35  13  40 S8        30.16F WCI  29
BROOMFIELD     FAIR      30  19  64 W8        30.17S WCI  23
FORT COLLINS   FAIR      24  18  77 CALM      30.17F
LONGMONT       FAIR      22  17  82 SW6       30.18F WCI  14
$$

COZ041-046-047-076>085-087-088-191300-
...PIKES PEAK/PALMER DIVIDE AND SOUTHERN FOOTHILLS...

CITY           SKY/WX    TMP DP  RH WIND       PRES   REMARKS
COLO. SPRINGS  FAIR      28  11  48 CALM      30.20F
A. F. ACADEMY  FAIR      29   9  43 NE7       30.19S WCI  22
SCHRIEVER AFB  FAIR      27  10  47 CALM      30.20S
CHEYENNE MTN   FAIR      37   6  27 CALM      30.15S
ELLICOTT       NOT AVBL
FALCON         FAIR      31   6  35 W5        30.20F WCI  26
FORT CARSON    FAIR      24  13  63 NW6       30.18S WCI  17
LIMON          FAIR      10   8  92 NW5       30.19F WCI   2
MONUMENT HILL  FAIR      30  10  43 SW12      30.21S WCI  21
CANON CITY     CLEAR     34  10  37 W5        30.19S WCI  30
WALSENBURG     FAIR      30  16  55 NW3       30.21S
TRINIDAD       FAIR      28  16  60 W12       30.21F WCI  18
$$

COZ042>045-048>051-090-091-191300-
...NORTHEAST COLORADO...

CITY           SKY/WX    TMP DP  RH WIND       PRES   REMARKS
GREELEY ARPT   FAIR      17  13  84 W6        30.18F WCI   9
AKRON          FAIR      26  17  68 W13       30.15F WCI  15
BURLINGTON     FAIR      17  12  80 SW8       30.19F WCI   7
WRAY           NOT AVBL
YUMA           FAIR      19  16  86 SW9       30.17S WCI   9
STERLING       FAIR      14  10  85 SW5       30.17S WCI   6
HOLYOKE        FAIR      21  16  79 W10       30.18S WCI  10
FORT MORGAN    FAIR      15  11  84 W12       30.16F WCI   1
$$

COZ086-089-092>099-191300-
...SOUTHEAST COLORADO...

CITY           SKY/WX    TMP DP  RH WIND       PRES   REMARKS
PUEBLO         FAIR      22  17  81 CALM      30.21S
LA JUNTA       FAIR      21  18  88 SW6       30.22S WCI  13
LAMAR          FAIR      14  10  84 SW9       30.21S WCI   2
SPRINGFIELD      N/A     21  17  84 W7        30.20F WCI  12
$$



USA.gov is the U.S. government's official web portal to all federal, state and local government web resources and services.